owner,sensor,date,latitude,longitude,vertical_datum,wind_speed,wind_to_direction,wind_speed_of_gust,qcFlag 
NDBC,ioos:station:NOAA.NDBC:VENF1:1,2017-12-01T00:00:00Z,27.0720,-82.4530,11.6,2.1,30.0,2.1,'1111122,1111122,1111122' 
NDBC,ioos:station:NOAA.NDBC:VENF1:1,2017-12-01T01:00:00Z,27.0720,-82.4530,11.6,2.1,40.0,3.1,'1111122,1111122,1111122' 
NDBC,ioos:station:NOAA.NDBC:VENF1:1,2017-12-01T02:00:00Z,27.0720,-82.4530,11.6,3.1,50.0,3.6,'1111122,1111122,1111122' 
NDBC,ioos:station:NOAA.NDBC:VENF1:1,2017-12-01T03:00:00Z,27.0720,-82.4530,11.6,2.1,60.0,2.6,'1111122,1111122,1111122' 
NDBC,ioos:station:NOAA.NDBC:VENF1:1,2017-12-01T04:00:00Z,27.0720,-82.4530,11.6,2.6,50.0,3.1,'1111122,1111122,1111122' 
NDBC,ioos:station:NOAA.NDBC:VENF1:1,2017-12-01T05:00:00Z,27.0720,-82.4530,11.6,2.1,80.0,2.6,'1111122,1111122,1111122' 
NDBC,ioos:station:NOAA.NDBC:VENF1:1,2017-12-01T06:00:00Z,27.0720,-82.4530,11.6,3.1,30.0,3.6,'1111122,1111122,1111122' 
NDBC,ioos:station:NOAA.NDBC:VENF1:1,2017-12-01T07:00:00Z,27.0720,-82.4530,11.6,3.6,50.0,4.6,'1111122,1111122,1111122' 
NDBC,ioos:station:NOAA.NDBC:VENF1:1,2017-12-01T08:00:00Z,27.0720,-82.4530,11.6,3.6,50.0,4.6,'1111122,1111122,1111122' 
NDBC,ioos:station:NOAA.NDBC:VENF1:1,2017-12-01T09:00:00Z,27.0720,-82.4530,11.6,4.1,50.0,5.1,'1111122,1111122,1111122' 
NDBC,ioos:station:NOAA.NDBC:VENF1:1,2017-12-01T10:00:00Z,27.0720,-82.4530,11.6,4.1,50.0,5.1,'1111122,1111122,1111122' 
NDBC,ioos:station:NOAA.NDBC:VENF1:1,2017-12-01T11:00:00Z,27.0720,-82.4530,11.6,4.1,40.0,5.1,'1111122,1111122,1111122' 
NDBC,ioos:station:NOAA.NDBC:VENF1:1,2017-12-01T12:00:00Z,27.0720,-82.4530,11.6,4.1,40.0,5.1,'1111122,1111122,1111122' 
NDBC,ioos:station:NOAA.NDBC:VENF1:1,2017-12-01T13:00:00Z,27.0720,-82.4530,11.6,3.6,50.0,4.1,'1111122,1111122,1111122' 
NDBC,ioos:station:NOAA.NDBC:VENF1:1,2017-12-01T14:00:00Z,27.0720,-82.4530,11.6,3.6,60.0,4.6,'1111122,1111122,1111122' 
NDBC,ioos:station:NOAA.NDBC:VENF1:1,2017-12-01T15:00:00Z,27.0720,-82.4530,11.6,3.1,70.0,5.1,'1111122,1111122,1111122' 
NDBC,ioos:station:NOAA.NDBC:VENF1:1,2017-12-01T16:00:00Z,27.0720,-82.4530,11.6,3.1,60.0,4.6,'1111122,1111122,1111122' 
NDBC,ioos:station:NOAA.NDBC:VENF1:1,2017-12-01T17:00:00Z,27.0720,-82.4530,11.6,4.1,60.0,5.7,'1111122,1111122,1111122' 
NDBC,ioos:station:NOAA.NDBC:VENF1:1,2017-12-01T18:00:00Z,27.0720,-82.4530,11.6,3.1,50.0,4.6,'1111122,1111122,1111122' 
NDBC,ioos:station:NOAA.NDBC:VENF1:1,2017-12-01T19:00:00Z,27.0720,-82.4530,11.6,3.1,330.0,4.1,'1111122,1111122,1111122' 
NDBC,ioos:station:NOAA.NDBC:VENF1:1,2017-12-01T20:00:00Z,27.0720,-82.4530,11.6,5.7,310.0,6.2,'1111122,1111122,1111122' 
NDBC,ioos:station:NOAA.NDBC:VENF1:1,2017-12-02T08:00:00Z,27.0720,-82.4530,11.6,3.1,60.0,3.6,'1111122,1111122,1111122' 
NDBC,ioos:station:NOAA.NDBC:VENF1:1,2017-12-02T10:00:00Z,27.0720,-82.4530,11.6,3.1,50.0,3.6,'1111122,1111122,1111122' 
NDBC,ioos:station:NOAA.NDBC:VENF1:1,2017-12-02T11:00:00Z,27.0720,-82.4530,11.6,3.1,50.0,3.6,'1111122,1111122,1111122' 
NDBC,ioos:station:NOAA.NDBC:VENF1:1,2017-12-02T12:00:00Z,27.0720,-82.4530,11.6,2.6,70.0,3.1,'1111122,1111122,1111122' 
NDBC,ioos:station:NOAA.NDBC:VENF1:1,2017-12-02T13:00:00Z,27.0720,-82.4530,11.6,2.6,70.0,3.1,'1111122,1111122,1111122' 
NDBC,ioos:station:NOAA.NDBC:VENF1:1,2017-12-02T14:00:00Z,27.0720,-82.4530,11.6,2.6,70.0,3.1,'1111122,1111122,1111122' 
NDBC,ioos:station:NOAA.NDBC:VENF1:1,2017-12-02T15:00:00Z,27.0720,-82.4530,11.6,3.6,80.0,4.6,'1111122,1111122,1111122' 
NDBC,ioos:station:NOAA.NDBC:VENF1:1,2017-12-02T16:00:00Z,27.0720,-82.4530,11.6,3.1,120.0,4.6,'1111122,1111122,1111122' 
NDBC,ioos:station:NOAA.NDBC:VENF1:1,2017-12-02T17:00:00Z,27.0720,-82.4530,11.6,0.0,-9999.0,1.0,'1114422,1111122,1111122' 
NDBC,ioos:station:NOAA.NDBC:VENF1:1,2017-12-02T18:00:00Z,27.0720,-82.4530,11.6,3.6,280.0,3.6,'1111122,1111122,1111122' 
NDBC,ioos:station:NOAA.NDBC:VENF1:1,2017-12-02T19:00:00Z,27.0720,-82.4530,11.6,3.6,280.0,3.6,'1111122,1111122,1111122' 
NDBC,ioos:station:NOAA.NDBC:VENF1:1,2017-12-02T20:00:00Z,27.0720,-82.4530,11.6,3.6,310.0,3.6,'1111122,1111122,1111122' 
NDBC,ioos:station:NOAA.NDBC:VENF1:1,2017-12-02T21:00:00Z,27.0720,-82.4530,11.6,3.6,320.0,4.1,'1111122,1111122,1111122' 
NDBC,ioos:station:NOAA.NDBC:VENF1:1,2017-12-02T22:00:00Z,27.0720,-82.4530,11.6,5.1,320.0,5.7,'1111122,1111122,1111122' 
NDBC,ioos:station:NOAA.NDBC:VENF1:1,2017-12-03T00:00:00Z,27.0720,-82.4530,11.6,5.1,330.0,5.7,'1111122,1111122,1111122' 
NDBC,ioos:station:NOAA.NDBC:VENF1:1,2017-12-03T01:00:00Z,27.0720,-82.4530,11.6,5.7,340.0,6.2,'1111122,1111122,1111122' 
NDBC,ioos:station:NOAA.NDBC:VENF1:1,2017-12-03T02:00:00Z,27.0720,-82.4530,11.6,4.6,360.0,5.1,'1111122,1111122,1111122' 
NDBC,ioos:station:NOAA.NDBC:VENF1:1,2017-12-03T03:00:00Z,27.0720,-82.4530,11.6,3.6,10.0,4.1,'1111122,1111122,1111122' 
NDBC,ioos:station:NOAA.NDBC:VENF1:1,2017-12-03T04:00:00Z,27.0720,-82.4530,11.6,4.6,10.0,5.1,'1111122,1111122,1111122' 
NDBC,ioos:station:NOAA.NDBC:VENF1:1,2017-12-03T05:00:00Z,27.0720,-82.4530,11.6,3.6,30.0,5.1,'1111122,1111122,1111122' 
NDBC,ioos:station:NOAA.NDBC:VENF1:1,2017-12-03T06:00:00Z,27.0720,-82.4530,11.6,3.1,50.0,3.6,'1111122,1111122,1111122' 
NDBC,ioos:station:NOAA.NDBC:VENF1:1,2017-12-03T07:00:00Z,27.0720,-82.4530,11.6,3.6,60.0,4.1,'1111122,1111122,1111122' 
NDBC,ioos:station:NOAA.NDBC:VENF1:1,2017-12-03T08:00:00Z,27.0720,-82.4530,11.6,3.6,60.0,3.6,'1111122,1111122,1111122' 
NDBC,ioos:station:NOAA.NDBC:VENF1:1,2017-12-03T09:00:00Z,27.0720,-82.4530,11.6,3.1,80.0,3.6,'1111122,1111122,1111122' 
NDBC,ioos:station:NOAA.NDBC:VENF1:1,2017-12-03T10:00:00Z,27.0720,-82.4530,11.6,3.1,80.0,3.6,'1111122,1111122,1111122' 
NDBC,ioos:station:NOAA.NDBC:VENF1:1,2017-12-03T11:00:00Z,27.0720,-82.4530,11.6,3.6,60.0,3.6,'1111122,1111122,1111122' 
NDBC,ioos:station:NOAA.NDBC:VENF1:1,2017-12-03T12:00:00Z,27.0720,-82.4530,11.6,4.1,50.0,4.1,'1111122,1111122,1111122' 
NDBC,ioos:station:NOAA.NDBC:VENF1:1,2017-12-03T13:00:00Z,27.0720,-82.4530,11.6,3.6,60.0,4.1,'1111122,1111122,1111122' 
NDBC,ioos:station:NOAA.NDBC:VENF1:1,2017-12-03T14:00:00Z,27.0720,-82.4530,11.6,2.6,70.0,3.1,'1111122,1111122,1111122' 
NDBC,ioos:station:NOAA.NDBC:VENF1:1,2017-12-03T15:00:00Z,27.0720,-82.4530,11.6,0.0,-9999.0,1.0,'1114422,1111122,1111122' 
NDBC,ioos:station:NOAA.NDBC:VENF1:1,2017-12-03T16:00:00Z,27.0720,-82.4530,11.6,2.1,290.0,2.6,'1111122,1111122,1111122' 
NDBC,ioos:station:NOAA.NDBC:VENF1:1,2017-12-03T17:00:00Z,27.0720,-82.4530,11.6,3.1,280.0,3.1,'1111122,1111122,1111122' 
NDBC,ioos:station:NOAA.NDBC:VENF1:1,2017-12-03T18:00:00Z,27.0720,-82.4530,11.6,3.6,280.0,4.1,'1111122,1111122,1111122' 
NDBC,ioos:station:NOAA.NDBC:VENF1:1,2017-12-03T19:00:00Z,27.0720,-82.4530,11.6,4.1,290.0,4.1,'1111122,1111122,1111122' 
NDBC,ioos:station:NOAA.NDBC:VENF1:1,2017-12-03T20:00:00Z,27.0720,-82.4530,11.6,4.1,300.0,4.1,'1111122,1111122,1111122' 
NDBC,ioos:station:NOAA.NDBC:VENF1:1,2017-12-03T21:00:00Z,27.0720,-82.4530,11.6,4.6,300.0,4.6,'1111122,1111122,1111122' 
NDBC,ioos:station:NOAA.NDBC:VENF1:1,2017-12-03T22:00:00Z,27.0720,-82.4530,11.6,4.1,310.0,4.6,'1111122,1111122,1111122' 
NDBC,ioos:station:NOAA.NDBC:VENF1:1,2017-12-03T23:00:00Z,27.0720,-82.4530,11.6,4.6,320.0,4.6,'1111122,1111122,1111122' 
NDBC,ioos:station:NOAA.NDBC:VENF1:1,2017-12-04T00:00:00Z,27.0720,-82.4530,11.6,3.6,330.0,4.1,'1111122,1111122,1111122' 
NDBC,ioos:station:NOAA.NDBC:VENF1:1,2017-12-04T02:00:00Z,27.0720,-82.4530,11.6,2.6,10.0,3.1,'1111122,1111122,1111122' 
NDBC,ioos:station:NOAA.NDBC:VENF1:1,2017-12-04T03:00:00Z,27.0720,-82.4530,11.6,3.1,10.0,3.6,'1111122,1111122,1111122' 
NDBC,ioos:station:NOAA.NDBC:VENF1:1,2017-12-04T04:00:00Z,27.0720,-82.4530,11.6,3.6,30.0,4.6,'1111122,1111122,1111122' 
NDBC,ioos:station:NOAA.NDBC:VENF1:1,2017-12-04T05:00:00Z,27.0720,-82.4530,11.6,3.6,40.0,4.1,'1111122,1111122,1111122' 
NDBC,ioos:station:NOAA.NDBC:VENF1:1,2017-12-04T06:00:00Z,27.0720,-82.4530,11.6,3.6,50.0,5.1,'1111122,1111122,1111122' 
NDBC,ioos:station:NOAA.NDBC:VENF1:1,2017-12-04T07:00:00Z,27.0720,-82.4530,11.6,3.1,60.0,4.1,'1111122,1111122,1111122' 
NDBC,ioos:station:NOAA.NDBC:VENF1:1,2017-12-04T08:00:00Z,27.0720,-82.4530,11.6,3.6,60.0,4.6,'1111122,1111122,1111122' 
NDBC,ioos:station:NOAA.NDBC:VENF1:1,2017-12-04T09:00:00Z,27.0720,-82.4530,11.6,3.6,50.0,4.6,'1111122,1111122,1111122' 
NDBC,ioos:station:NOAA.NDBC:VENF1:1,2017-12-04T10:00:00Z,27.0720,-82.4530,11.6,3.1,60.0,4.1,'1111122,1111122,1111122' 
NDBC,ioos:station:NOAA.NDBC:VENF1:1,2017-12-04T11:00:00Z,27.0720,-82.4530,11.6,3.6,60.0,4.6,'1111122,1111122,1111122' 
NDBC,ioos:station:NOAA.NDBC:VENF1:1,2017-12-04T12:00:00Z,27.0720,-82.4530,11.6,5.1,60.0,5.7,'1111122,1111122,1111122' 
NDBC,ioos:station:NOAA.NDBC:VENF1:1,2017-12-04T13:00:00Z,27.0720,-82.4530,11.6,5.1,50.0,6.7,'1111122,1111122,1111122' 
NDBC,ioos:station:NOAA.NDBC:VENF1:1,2017-12-04T14:00:00Z,27.0720,-82.4530,11.6,3.6,50.0,4.1,'1111122,1111122,1111122' 
NDBC,ioos:station:NOAA.NDBC:VENF1:1,2017-12-04T15:00:00Z,27.0720,-82.4530,11.6,3.1,80.0,4.1,'1111122,1111122,1111122' 
NDBC,ioos:station:NOAA.NDBC:VENF1:1,2017-12-04T16:00:00Z,27.0720,-82.4530,11.6,3.6,80.0,5.7,'1111122,1111122,1111122' 
NDBC,ioos:station:NOAA.NDBC:VENF1:1,2017-12-04T17:00:00Z,27.0720,-82.4530,11.6,4.6,80.0,6.2,'1111122,1111122,1111122' 
NDBC,ioos:station:NOAA.NDBC:VENF1:1,2017-12-04T18:00:00Z,27.0720,-82.4530,11.6,2.6,110.0,3.6,'1111122,1111122,1111122' 
NDBC,ioos:station:NOAA.NDBC:VENF1:1,2017-12-04T19:00:00Z,27.0720,-82.4530,11.6,2.6,110.0,3.1,'1111122,1111122,1111122' 
NDBC,ioos:station:NOAA.NDBC:VENF1:1,2017-12-04T20:00:00Z,27.0720,-82.4530,11.6,2.1,40.0,2.6,'1111122,1111122,1111122' 
NDBC,ioos:station:NOAA.NDBC:VENF1:1,2017-12-04T21:00:00Z,27.0720,-82.4530,11.6,3.1,290.0,3.6,'1111122,1111122,1111122' 
NDBC,ioos:station:NOAA.NDBC:VENF1:1,2017-12-04T22:00:00Z,27.0720,-82.4530,11.6,4.1,330.0,4.6,'1111122,1111122,1111122' 
NDBC,ioos:station:NOAA.NDBC:VENF1:1,2017-12-04T23:00:00Z,27.0720,-82.4530,11.6,3.1,350.0,3.6,'1111122,1111122,1111122' 
NDBC,ioos:station:NOAA.NDBC:VENF1:1,2017-12-05T00:00:00Z,27.0720,-82.4530,11.6,2.1,20.0,2.6,'1111122,1111122,1111122' 
NDBC,ioos:station:NOAA.NDBC:VENF1:1,2017-12-05T01:00:00Z,27.0720,-82.4530,11.6,3.1,50.0,4.6,'1111122,1111122,1111122' 
NDBC,ioos:station:NOAA.NDBC:VENF1:1,2017-12-05T02:00:00Z,27.0720,-82.4530,11.6,3.1,60.0,4.1,'1111122,1111122,1111122' 
NDBC,ioos:station:NOAA.NDBC:VENF1:1,2017-12-05T03:00:00Z,27.0720,-82.4530,11.6,2.6,70.0,4.1,'1111122,1111122,1111122' 
NDBC,ioos:station:NOAA.NDBC:VENF1:1,2017-12-05T04:00:00Z,27.0720,-82.4530,11.6,4.1,70.0,4.6,'1111122,1111122,1111122' 
NDBC,ioos:station:NOAA.NDBC:VENF1:1,2017-12-05T05:00:00Z,27.0720,-82.4530,11.6,3.1,70.0,4.1,'1111122,1111122,1111122' 
NDBC,ioos:station:NOAA.NDBC:VENF1:1,2017-12-05T06:00:00Z,27.0720,-82.4530,11.6,2.6,80.0,3.6,'1111122,1111122,1111122' 
NDBC,ioos:station:NOAA.NDBC:VENF1:1,2017-12-05T07:00:00Z,27.0720,-82.4530,11.6,2.6,60.0,3.1,'1111122,1111122,1111122' 
NDBC,ioos:station:NOAA.NDBC:VENF1:1,2017-12-05T08:00:00Z,27.0720,-82.4530,11.6,2.6,60.0,3.1,'1111122,1111122,1111122' 
NDBC,ioos:station:NOAA.NDBC:VENF1:1,2017-12-05T09:00:00Z,27.0720,-82.4530,11.6,3.1,60.0,3.6,'1111122,1111122,1111122' 
NDBC,ioos:station:NOAA.NDBC:VENF1:1,2017-12-05T10:00:00Z,27.0720,-82.4530,11.6,3.1,60.0,3.6,'1111122,1111122,1111122' 
NDBC,ioos:station:NOAA.NDBC:VENF1:1,2017-12-05T11:00:00Z,27.0720,-82.4530,11.6,3.6,70.0,4.6,'1111122,1111122,1111122' 
NDBC,ioos:station:NOAA.NDBC:VENF1:1,2017-12-05T12:00:00Z,27.0720,-82.4530,11.6,3.1,70.0,3.6,'1111122,1111122,1111122' 
NDBC,ioos:station:NOAA.NDBC:VENF1:1,2017-12-05T13:00:00Z,27.0720,-82.4530,11.6,3.1,80.0,4.1,'1111122,1111122,1111122' 
NDBC,ioos:station:NOAA.NDBC:VENF1:1,2017-12-05T14:00:00Z,27.0720,-82.4530,11.6,2.6,90.0,3.6,'1111122,1111122,1111122' 
NDBC,ioos:station:NOAA.NDBC:VENF1:1,2017-12-05T15:00:00Z,27.0720,-82.4530,11.6,2.6,100.0,3.6,'1111122,1111122,1111122' 
NDBC,ioos:station:NOAA.NDBC:VENF1:1,2017-12-05T16:00:00Z,27.0720,-82.4530,11.6,3.1,110.0,5.1,'1111122,1111122,1111122' 
NDBC,ioos:station:NOAA.NDBC:VENF1:1,2017-12-05T17:00:00Z,27.0720,-82.4530,11.6,3.6,190.0,3.6,'1111122,1111122,1111122' 
NDBC,ioos:station:NOAA.NDBC:VENF1:1,2017-12-05T18:00:00Z,27.0720,-82.4530,11.6,2.1,210.0,2.6,'1111122,1111122,1111122' 
NDBC,ioos:station:NOAA.NDBC:VENF1:1,2017-12-05T19:00:00Z,27.0720,-82.4530,11.6,2.6,210.0,3.1,'1111122,1111122,1111122' 
NDBC,ioos:station:NOAA.NDBC:VENF1:1,2017-12-05T20:00:00Z,27.0720,-82.4530,11.6,2.6,240.0,2.6,'1111122,1111122,1111122' 
NDBC,ioos:station:NOAA.NDBC:VENF1:1,2017-12-05T21:00:00Z,27.0720,-82.4530,11.6,2.6,260.0,2.6,'1111122,1111122,1111122' 
NDBC,ioos:station:NOAA.NDBC:VENF1:1,2017-12-05T22:00:00Z,27.0720,-82.4530,11.6,2.6,250.0,3.1,'1111122,1111122,1111122' 
NDBC,ioos:station:NOAA.NDBC:VENF1:1,2017-12-05T23:00:00Z,27.0720,-82.4530,11.6,2.1,20.0,2.6,'1111122,1111122,1111122' 
NDBC,ioos:station:NOAA.NDBC:VENF1:1,2017-12-06T00:00:00Z,27.0720,-82.4530,11.6,0.0,-9999.0,0.5,'1114422,1111122,1111122' 
NDBC,ioos:station:NOAA.NDBC:VENF1:1,2017-12-06T01:00:00Z,27.0720,-82.4530,11.6,1.5,360.0,1.5,'1111122,1111122,1111122' 
NDBC,ioos:station:NOAA.NDBC:VENF1:1,2017-12-06T02:00:00Z,27.0720,-82.4530,11.6,2.1,40.0,2.6,'1111122,1111122,1111122' 
NDBC,ioos:station:NOAA.NDBC:VENF1:1,2017-12-06T03:00:00Z,27.0720,-82.4530,11.6,2.6,40.0,3.1,'1111122,1111122,1111122' 
NDBC,ioos:station:NOAA.NDBC:VENF1:1,2017-12-06T04:00:00Z,27.0720,-82.4530,11.6,2.1,50.0,2.6,'1111122,1111122,1111122' 
NDBC,ioos:station:NOAA.NDBC:VENF1:1,2017-12-06T05:00:00Z,27.0720,-82.4530,11.6,1.5,70.0,2.1,'1111122,1111122,1111122' 
NDBC,ioos:station:NOAA.NDBC:VENF1:1,2017-12-06T06:00:00Z,27.0720,-82.4530,11.6,1.5,110.0,2.1,'1111122,1111122,1111122' 
NDBC,ioos:station:NOAA.NDBC:VENF1:1,2017-12-06T07:00:00Z,27.0720,-82.4530,11.6,1.5,110.0,2.1,'1111122,1111122,1111122' 
NDBC,ioos:station:NOAA.NDBC:VENF1:1,2017-12-06T08:00:00Z,27.0720,-82.4530,11.6,2.6,100.0,3.1,'1111122,1111122,1111122' 
NDBC,ioos:station:NOAA.NDBC:VENF1:1,2017-12-06T09:00:00Z,27.0720,-82.4530,11.6,2.1,110.0,2.1,'1111122,1111122,1111122' 
NDBC,ioos:station:NOAA.NDBC:VENF1:1,2017-12-06T10:00:00Z,27.0720,-82.4530,11.6,2.6,110.0,2.6,'1111122,1111122,1111122' 
NDBC,ioos:station:NOAA.NDBC:VENF1:1,2017-12-06T11:00:00Z,27.0720,-82.4530,11.6,3.6,100.0,3.6,'1111122,1111122,1111122' 
NDBC,ioos:station:NOAA.NDBC:VENF1:1,2017-12-06T12:00:00Z,27.0720,-82.4530,11.6,3.1,90.0,3.1,'1111122,1111122,1111122' 
NDBC,ioos:station:NOAA.NDBC:VENF1:1,2017-12-06T13:00:00Z,27.0720,-82.4530,11.6,3.1,80.0,3.1,'1111122,1111122,1111122' 
NDBC,ioos:station:NOAA.NDBC:VENF1:1,2017-12-06T14:00:00Z,27.0720,-82.4530,11.6,2.1,100.0,2.6,'1111122,1111122,1111122' 
NDBC,ioos:station:NOAA.NDBC:VENF1:1,2017-12-06T15:00:00Z,27.0720,-82.4530,11.6,3.6,160.0,4.1,'1111122,1111122,1111122' 
NDBC,ioos:station:NOAA.NDBC:VENF1:1,2017-12-06T16:00:00Z,27.0720,-82.4530,11.6,3.6,180.0,4.1,'1111122,1111122,1111122' 
NDBC,ioos:station:NOAA.NDBC:VENF1:1,2017-12-06T17:00:00Z,27.0720,-82.4530,11.6,4.6,170.0,5.1,'1111122,1111122,1111122' 
NDBC,ioos:station:NOAA.NDBC:VENF1:1,2017-12-06T18:00:00Z,27.0720,-82.4530,11.6,3.6,180.0,3.6,'1111122,1111122,1111122' 
NDBC,ioos:station:NOAA.NDBC:VENF1:1,2017-12-06T19:00:00Z,27.0720,-82.4530,11.6,3.6,190.0,4.1,'1111122,1111122,1111122' 
NDBC,ioos:station:NOAA.NDBC:VENF1:1,2017-12-06T20:00:00Z,27.0720,-82.4530,11.6,2.1,220.0,2.6,'1111122,1111122,1111122' 
NDBC,ioos:station:NOAA.NDBC:VENF1:1,2017-12-06T21:00:00Z,27.0720,-82.4530,11.6,2.1,210.0,2.1,'1111122,1111122,1111122' 
NDBC,ioos:station:NOAA.NDBC:VENF1:1,2017-12-06T22:00:00Z,27.0720,-82.4530,11.6,1.0,200.0,1.5,'1111122,1111122,1111122' 
NDBC,ioos:station:NOAA.NDBC:VENF1:1,2017-12-06T23:00:00Z,27.0720,-82.4530,11.6,1.5,190.0,1.5,'1111122,1111122,1111122' 
NDBC,ioos:station:NOAA.NDBC:VENF1:1,2017-12-07T00:00:00Z,27.0720,-82.4530,11.6,1.0,200.0,1.0,'1111122,1111122,1111122' 
NDBC,ioos:station:NOAA.NDBC:VENF1:1,2017-12-07T01:00:00Z,27.0720,-82.4530,11.6,1.5,170.0,1.5,'1111122,1111122,1111122' 
NDBC,ioos:station:NOAA.NDBC:VENF1:1,2017-12-07T02:00:00Z,27.0720,-82.4530,11.6,1.0,230.0,1.0,'1111122,1111122,1111122' 
NDBC,ioos:station:NOAA.NDBC:VENF1:1,2017-12-07T03:00:00Z,27.0720,-82.4530,11.6,1.5,180.0,1.5,'1111122,1111122,1111122' 
NDBC,ioos:station:NOAA.NDBC:VENF1:1,2017-12-07T04:00:00Z,27.0720,-82.4530,11.6,1.5,130.0,2.1,'1111122,1111122,1111122' 
NDBC,ioos:station:NOAA.NDBC:VENF1:1,2017-12-07T05:00:00Z,27.0720,-82.4530,11.6,1.5,110.0,1.5,'1111122,1111122,1111122' 
NDBC,ioos:station:NOAA.NDBC:VENF1:1,2017-12-07T06:00:00Z,27.0720,-82.4530,11.6,2.1,130.0,2.6,'1111122,1111122,1111122' 
NDBC,ioos:station:NOAA.NDBC:VENF1:1,2017-12-07T07:00:00Z,27.0720,-82.4530,11.6,0.0,-9999.0,0.5,'1114422,1111122,1111122' 
NDBC,ioos:station:NOAA.NDBC:VENF1:1,2017-12-07T08:00:00Z,27.0720,-82.4530,11.6,1.5,120.0,1.5,'1111122,1111122,1111122' 
NDBC,ioos:station:NOAA.NDBC:VENF1:1,2017-12-07T09:00:00Z,27.0720,-82.4530,11.6,3.1,80.0,3.6,'1111122,1111122,1111122' 
NDBC,ioos:station:NOAA.NDBC:VENF1:1,2017-12-07T10:00:00Z,27.0720,-82.4530,11.6,3.1,100.0,3.6,'1111122,1111122,1111122' 
NDBC,ioos:station:NOAA.NDBC:VENF1:1,2017-12-07T11:00:00Z,27.0720,-82.4530,11.6,2.6,100.0,3.1,'1111122,1111122,1111122' 
NDBC,ioos:station:NOAA.NDBC:VENF1:1,2017-12-07T12:00:00Z,27.0720,-82.4530,11.6,2.6,100.0,3.6,'1111122,1111122,1111122' 
NDBC,ioos:station:NOAA.NDBC:VENF1:1,2017-12-07T13:00:00Z,27.0720,-82.4530,11.6,1.5,100.0,2.1,'1111122,1111122,1111122' 
NDBC,ioos:station:NOAA.NDBC:VENF1:1,2017-12-07T14:00:00Z,27.0720,-82.4530,11.6,3.6,150.0,4.1,'1111122,1111122,1111122' 
NDBC,ioos:station:NOAA.NDBC:VENF1:1,2017-12-07T15:00:00Z,27.0720,-82.4530,11.6,3.6,160.0,4.1,'1111122,1111122,1111122' 
NDBC,ioos:station:NOAA.NDBC:VENF1:1,2017-12-07T16:00:00Z,27.0720,-82.4530,11.6,5.1,160.0,5.7,'1111122,1111122,1111122' 
NDBC,ioos:station:NOAA.NDBC:VENF1:1,2017-12-07T17:00:00Z,27.0720,-82.4530,11.6,5.7,160.0,5.7,'1111122,1111122,1111122' 
NDBC,ioos:station:NOAA.NDBC:VENF1:1,2017-12-07T18:00:00Z,27.0720,-82.4530,11.6,5.1,160.0,5.7,'1111122,1111122,1111122' 
NDBC,ioos:station:NOAA.NDBC:VENF1:1,2017-12-07T19:00:00Z,27.0720,-82.4530,11.6,4.6,160.0,5.1,'1111122,1111122,1111122' 
NDBC,ioos:station:NOAA.NDBC:VENF1:1,2017-12-07T20:00:00Z,27.0720,-82.4530,11.6,5.1,160.0,5.7,'1111122,1111122,1111122' 
NDBC,ioos:station:NOAA.NDBC:VENF1:1,2017-12-07T22:00:00Z,27.0720,-82.4530,11.6,5.1,170.0,5.7,'1111122,1111122,1111122' 
NDBC,ioos:station:NOAA.NDBC:VENF1:1,2017-12-07T23:00:00Z,27.0720,-82.4530,11.6,3.6,160.0,4.1,'1111122,1111122,1111122' 
NDBC,ioos:station:NOAA.NDBC:VENF1:1,2017-12-08T00:00:00Z,27.0720,-82.4530,11.6,2.1,170.0,2.6,'1111122,1111122,1111122' 
NDBC,ioos:station:NOAA.NDBC:VENF1:1,2017-12-08T01:00:00Z,27.0720,-82.4530,11.6,1.0,170.0,1.5,'1111122,1111122,1111122' 
NDBC,ioos:station:NOAA.NDBC:VENF1:1,2017-12-08T02:00:00Z,27.0720,-82.4530,11.6,0.5,150.0,1.0,'1111122,1111122,1111122' 
NDBC,ioos:station:NOAA.NDBC:VENF1:1,2017-12-08T03:00:00Z,27.0720,-82.4530,11.6,2.1,130.0,2.6,'1111122,1111122,1111122' 
NDBC,ioos:station:NOAA.NDBC:VENF1:1,2017-12-08T04:00:00Z,27.0720,-82.4530,11.6,2.1,90.0,2.1,'1111122,1111122,1111122' 
NDBC,ioos:station:NOAA.NDBC:VENF1:1,2017-12-08T05:00:00Z,27.0720,-82.4530,11.6,2.1,130.0,2.6,'1111122,1111122,1111122' 
NDBC,ioos:station:NOAA.NDBC:VENF1:1,2017-12-08T06:00:00Z,27.0720,-82.4530,11.6,2.6,130.0,2.6,'1111122,1111122,1111122' 
NDBC,ioos:station:NOAA.NDBC:VENF1:1,2017-12-08T07:00:00Z,27.0720,-82.4530,11.6,2.1,110.0,2.6,'1111122,1111122,1111122' 
NDBC,ioos:station:NOAA.NDBC:VENF1:1,2017-12-08T08:00:00Z,27.0720,-82.4530,11.6,4.1,150.0,4.6,'1111122,1111122,1111122' 
NDBC,ioos:station:NOAA.NDBC:VENF1:1,2017-12-08T09:00:00Z,27.0720,-82.4530,11.6,5.1,160.0,5.7,'1111122,1111122,1111122' 
NDBC,ioos:station:NOAA.NDBC:VENF1:1,2017-12-08T10:00:00Z,27.0720,-82.4530,11.6,4.6,160.0,4.6,'1111122,1111122,1111122' 
NDBC,ioos:station:NOAA.NDBC:VENF1:1,2017-12-08T11:00:00Z,27.0720,-82.4530,11.6,4.1,170.0,4.6,'1111122,1111122,1111122' 
NDBC,ioos:station:NOAA.NDBC:VENF1:1,2017-12-08T12:00:00Z,27.0720,-82.4530,11.6,5.1,150.0,5.7,'1111122,1111122,1111122' 
NDBC,ioos:station:NOAA.NDBC:VENF1:1,2017-12-08T13:00:00Z,27.0720,-82.4530,11.6,6.7,160.0,7.2,'1111122,1111122,1111122' 
NDBC,ioos:station:NOAA.NDBC:VENF1:1,2017-12-08T14:00:00Z,27.0720,-82.4530,11.6,6.2,160.0,7.2,'1111122,1111122,1111122' 
NDBC,ioos:station:NOAA.NDBC:VENF1:1,2017-12-08T15:00:00Z,27.0720,-82.4530,11.6,7.2,170.0,7.7,'1111122,1111122,1111122' 
NDBC,ioos:station:NOAA.NDBC:VENF1:1,2017-12-08T17:00:00Z,27.0720,-82.4530,11.6,5.7,160.0,6.2,'1111122,1111122,1111122' 
NDBC,ioos:station:NOAA.NDBC:VENF1:1,2017-12-08T18:00:00Z,27.0720,-82.4530,11.6,6.2,170.0,6.7,'1111122,1111122,1111122' 
NDBC,ioos:station:NOAA.NDBC:VENF1:1,2017-12-08T19:00:00Z,27.0720,-82.4530,11.6,7.7,170.0,8.2,'1111122,1111122,1111122' 
NDBC,ioos:station:NOAA.NDBC:VENF1:1,2017-12-08T20:00:00Z,27.0720,-82.4530,11.6,7.7,160.0,8.8,'1111122,1111122,1111122' 
NDBC,ioos:station:NOAA.NDBC:VENF1:1,2017-12-08T21:00:00Z,27.0720,-82.4530,11.6,9.3,160.0,10.3,'1111122,1111122,1111122' 
NDBC,ioos:station:NOAA.NDBC:VENF1:1,2017-12-08T22:00:00Z,27.0720,-82.4530,11.6,9.3,170.0,10.8,'1111122,1111122,1111122' 
NDBC,ioos:station:NOAA.NDBC:VENF1:1,2017-12-08T23:00:00Z,27.0720,-82.4530,11.6,9.3,160.0,10.3,'1111122,1111122,1111122' 
NDBC,ioos:station:NOAA.NDBC:VENF1:1,2017-12-09T00:00:00Z,27.0720,-82.4530,11.6,7.7,170.0,8.8,'1111122,1111122,1111122' 
NDBC,ioos:station:NOAA.NDBC:VENF1:1,2017-12-09T01:00:00Z,27.0720,-82.4530,11.6,7.2,170.0,8.2,'1111122,1111122,1111122' 
NDBC,ioos:station:NOAA.NDBC:VENF1:1,2017-12-09T02:00:00Z,27.0720,-82.4530,11.6,8.8,170.0,9.8,'1111122,1111122,1111122' 
NDBC,ioos:station:NOAA.NDBC:VENF1:1,2017-12-09T03:00:00Z,27.0720,-82.4530,11.6,8.8,170.0,10.8,'1111122,1111122,1111122' 
NDBC,ioos:station:NOAA.NDBC:VENF1:1,2017-12-09T04:00:00Z,27.0720,-82.4530,11.6,7.2,170.0,8.8,'1111122,1111122,1111122' 
NDBC,ioos:station:NOAA.NDBC:VENF1:1,2017-12-09T05:00:00Z,27.0720,-82.4530,11.6,9.3,190.0,11.3,'1111122,1111122,1111122' 
NDBC,ioos:station:NOAA.NDBC:VENF1:1,2017-12-09T06:00:00Z,27.0720,-82.4530,11.6,10.8,210.0,12.4,'1111122,1111122,1111122' 
NDBC,ioos:station:NOAA.NDBC:VENF1:1,2017-12-09T07:00:00Z,27.0720,-82.4530,11.6,6.7,300.0,8.8,'1111122,1111122,1111122' 
NDBC,ioos:station:NOAA.NDBC:VENF1:1,2017-12-09T08:00:00Z,27.0720,-82.4530,11.6,8.2,250.0,8.8,'1111122,1111122,1111122' 
NDBC,ioos:station:NOAA.NDBC:VENF1:1,2017-12-09T09:00:00Z,27.0720,-82.4530,11.6,10.8,320.0,11.8,'1111122,1111122,1111122' 
NDBC,ioos:station:NOAA.NDBC:VENF1:1,2017-12-09T10:00:00Z,27.0720,-82.4530,11.6,13.9,320.0,16.0,'1111122,1111122,1111122' 
NDBC,ioos:station:NOAA.NDBC:VENF1:1,2017-12-09T11:00:00Z,27.0720,-82.4530,11.6,13.9,320.0,14.9,'1111122,1111122,1111122' 
NDBC,ioos:station:NOAA.NDBC:VENF1:1,2017-12-09T12:00:00Z,27.0720,-82.4530,11.6,12.9,330.0,13.9,'1111122,1111122,1111122' 
NDBC,ioos:station:NOAA.NDBC:VENF1:1,2017-12-09T13:00:00Z,27.0720,-82.4530,11.6,11.8,330.0,13.9,'1111122,1111122,1111122' 
NDBC,ioos:station:NOAA.NDBC:VENF1:1,2017-12-09T14:00:00Z,27.0720,-82.4530,11.6,10.8,330.0,12.9,'1111122,1111122,1111122' 
NDBC,ioos:station:NOAA.NDBC:VENF1:1,2017-12-09T15:00:00Z,27.0720,-82.4530,11.6,9.8,330.0,11.8,'1111122,1111122,1111122' 
NDBC,ioos:station:NOAA.NDBC:VENF1:1,2017-12-09T16:00:00Z,27.0720,-82.4530,11.6,10.8,330.0,12.4,'1111122,1111122,1111122' 
NDBC,ioos:station:NOAA.NDBC:VENF1:1,2017-12-09T17:00:00Z,27.0720,-82.4530,11.6,10.8,310.0,12.9,'1111122,1111122,1111122' 
NDBC,ioos:station:NOAA.NDBC:VENF1:1,2017-12-09T18:00:00Z,27.0720,-82.4530,11.6,17.5,310.0,19.6,'1111122,1111122,1111122' 
NDBC,ioos:station:NOAA.NDBC:VENF1:1,2017-12-09T19:00:00Z,27.0720,-82.4530,11.6,13.4,330.0,15.4,'1111122,1111122,1111122' 
NDBC,ioos:station:NOAA.NDBC:VENF1:1,2017-12-09T20:00:00Z,27.0720,-82.4530,11.6,14.4,330.0,17.5,'1111122,1111122,1111122' 
NDBC,ioos:station:NOAA.NDBC:VENF1:1,2017-12-09T21:00:00Z,27.0720,-82.4530,11.6,13.4,320.0,14.9,'1111122,1111122,1111122' 
NDBC,ioos:station:NOAA.NDBC:VENF1:1,2017-12-09T22:00:00Z,27.0720,-82.4530,11.6,13.4,320.0,14.9,'1111122,1111122,1111122' 